Regional Weather Roundup
Issued by NWS New Orleans/Baton Rouge, LA

Home | Current Version | Previous Version | Text Only | Print | Product List | Glossary Off
Versions: 1 2 3 4 5 6 7 8 9 10 11 12 13 14 15 16 17 18 19 20 21 22 23 24 25 26 27 28 29 30 31 32 33 34 35 36 37 38 39 40 41 42 43 44 45 46 47 48 49 50

976
ASUS44 KLIX 182101
RWRLIX
NEW ORLEANS REGIONAL WEATHER ROUNDUP
NATIONAL WEATHER SERVICE NEW ORLEANS LA
400 PM CDT THU SEP 18 2014

NOTE: "FAIR" INDICATES FEW OR NO CLOUDS BELOW 12,000 FEET WITH NO
      SIGNIFICANT WEATHER AND/OR OBSTRUCTIONS TO VISIBILITY.
      SKY/WX - SKY CONDITION AND SIGNIFICANT WEATHER.
      TMP - AIR TEMPERATURE.     DP    - DEWPOINT TEMPERATURE.
      RH  - RELATIVE HUMIDITY.   PRES  - PRESSURE.
      HI  - HEAT INDEX.          WCI   - WIND CHILL INDEX.

*  THESE STATIONS ARE NOT NWS OR FAA STATIONS AND ARE NOT UNDER
   NWS QUALITY CONTROL.

LAZ038-040-048-061>063-065>067-069-182200-
SOUTHEAST LOUISIANA

CITY           SKY/WX    TMP DP  RH WIND       PRES   REMARKS
N.O. AUDUBON     N/A     87  73  63 MISG        N/A  HX  95
N.O. INTL ARPT PTSUNNY   87  73  63 S9        29.86F HX  95
N.O. LAKEFRONT CLOUDY    84  75  74 SE7       29.87F
N.O. DOWNTOWN*   N/A     88  70  55 SE8       29.87F
SLIDELL        CLOUDY    87  73  62 SE6       29.87F
BATON ROUGE    CLOUDY    86  72  62 N6        29.87F
BOOTHVILLE     PTSUNNY   84  73  69 S9        29.88F
BELLE CHASSE   PTSUNNY   86  71  60 SE6       29.86F
BOGALUSA*      NOT AVBL
GALLIANO*      NOT AVBL
NEW ROADS*       N/A     84  72  66 E5        29.87F
GONZALES*        N/A     85  76  74 NE5       29.86F HX  95
HAMMOND*       NOT AVBL
HOUMA*         PTSUNNY   84  61  45 S5        29.87F
PORT FOURCHON* MOCLDY    84  75  74 VRB6      29.90F

$$

MSZ070-080>082-182200-
SOUTHERN MISSISSIPPI

CITY           SKY/WX    TMP DP  RH WIND       PRES   REMARKS
MCCOMB         CLOUDY    83  70  64 S5        29.90F
GULFPORT       CLOUDY    86  74  67 S7        29.87F
BILOXI         CLOUDY    87  74  65 S7        29.88F
PASCAGOULA     CLOUDY    85  73  67 S6        29.88F
STENNIS ARPT*  MOSUNNY   86  72  62 SE6       29.88F

$$

COASTAL OBSERVATIONS
LAKE AND NEARSHORE STATIONS

STATION/POSITION TIME  TEMP    WIND        PRES    WAVE
                       AIR SEA DIR/SP/G            HT/PER
                 (UTC) (F)     (DEG/KT/KT) (MB)    (FT/S)
PASCAGOULA       2000   85     190/  6/  7 1011.8
WAVELAND YACHT   2000   83     150/  6/  7 1011.5
GRAND ISLE       2000   84 87  160/  5/  9 1012.5
SOUTHWEST PASS   2000   88 92  150/  5/  8 1012.4
NEW CANAL        2000   85 83   80/  9/ 14 1012.1
SHELL BEACH      2000   85 82  110/ 10/ 12 1011.8

OFFSHORE STATIONS

STATION/POSITION TIME  TEMP    WIND        PRES    WAVE
                       AIR SEA DIR/SP/G            HT/PER
                 (UTC) (F)     (DEG/KT/KT) (MB)    (FT/S)
64 S DAUPHIN ISL 2006   84 87  130/  6/  8 1012.3    1/ 7

$$




USA.gov is the U.S. government's official web portal to all federal, state and local government web resources and services.